| time (UTC) | temp C | wind direction | speed KPH | gust KPH | rain 1hr cm | rain 24hr cm | rain mn cm | humidity % | barometer mb |
| 20260906145236 | 25 | 328 | 3.2 | 6.4 | 0.00 | 0.00 | 0.00 | 75 | 1017.0 |
| 20260906144735 | 25 | 43 | 4.8 | 4.8 | 0.00 | 0.00 | 0.00 | 74 | 1017.0 |
| 20260906144235 | 26 | 2 | 3.2 | 8.0 | 0.00 | 0.00 | 0.00 | 73 | 1017.0 |
| 20260906143735 | 26 | 218 | 1.6 | 6.4 | 0.00 | 0.00 | 0.00 | 72 | 1017.0 |
| 20260906143236 | 26 | 52 | 3.2 | 6.4 | 0.00 | 0.00 | 0.00 | 72 | 1017.0 |
| 20260906142735 | 26 | 325 | 4.8 | 9.7 | 0.00 | 0.00 | 0.00 | 71 | 1017.0 |
| 20260906142235 | 26 | 60 | 3.2 | 8.0 | 0.00 | 0.00 | 0.00 | 71 | 1017.0 |
| 20260906141735 | 26 | 318 | 3.2 | 6.4 | 0.00 | 0.00 | 0.00 | 72 | 1017.0 |
| 20260906141236 | 26 | 81 | 3.2 | 8.0 | 0.00 | 0.00 | 0.00 | 71 | 1017.0 |
| 20260906140735 | 26 | 36 | 3.2 | 8.0 | 0.00 | 0.00 | 0.00 | 72 | 1017.0 |
| 20260906140235 | 25 | 196 | 1.6 | 6.4 | 0.00 | 0.00 | 0.00 | 73 | 1017.0 |
| 20260906135735 | 25 | 302 | 0.0 | 3.2 | 0.00 | 0.00 | 0.00 | 75 | 1017.0 |
| 20260906135236 | 25 | 30 | 6.4 | 8.0 | 0.00 | 0.00 | 0.00 | 74 | 1017.0 |
| 20260906134735 | 25 | 28 | 3.2 | 6.4 | 0.00 | 0.00 | 0.00 | 74 | 1017.0 |
| 20260906134235 | 25 | 1 | 4.8 | 8.0 | 0.00 | 0.00 | 0.00 | 75 | 1017.0 |
| 20260906133735 | 25 | 16 | 1.6 | 1.6 | 0.00 | 0.00 | 0.00 | 76 | 1017.0 |
| 20260906133235 | 25 | 87 | 0.0 | 8.0 | 0.00 | 0.00 | 0.00 | 76 | 1017.0 |
| 20260906132735 | 25 | 166 | 0.0 | 4.8 | 0.00 | 0.00 | 0.00 | 77 | 1017.0 |
| 20260906132235 | 25 | 54 | 3.2 | 6.4 | 0.00 | 0.00 | 0.00 | 77 | 1017.0 |
| 20260906131737 | 25 | 266 | 0.0 | 4.8 | 0.00 | 0.00 | 0.00 | 77 | 1017.0 |
| 20260906131235 | 25 | 293 | 0.0 | 3.2 | 0.00 | 0.00 | 0.00 | 79 | 1017.0 |
| 20260906130736 | 25 | 289 | 1.6 | 3.2 | 0.00 | 0.00 | 0.00 | 79 | 1017.0 |
| 20260906130236 | 25 | 23 | 0.0 | 4.8 | 0.00 | 0.00 | 0.00 | 80 | 1017.0 |
| 20260906125735 | 24 | 255 | 0.0 | 3.2 | 0.00 | 0.00 | 0.00 | 81 | 1017.0 |
| 20260906125235 | 24 | 303 | 1.6 | 4.8 | 0.00 | 0.00 | 0.00 | 81 | 1017.0 |
| 20260906124735 | 24 | 337 | 3.2 | 6.4 | 0.00 | 0.00 | 0.00 | 82 | 1017.0 |
| 20260906124235 | 24 | 54 | 3.2 | 4.8 | 0.00 | 0.00 | 0.00 | 82 | 1017.0 |
| 20260906123735 | 24 | 342 | 3.2 | 6.4 | 0.00 | 0.00 | 0.00 | 83 | 1016.0 |
| 20260906123235 | 24 | 245 | 1.6 | 3.2 | 0.00 | 0.00 | 0.00 | 83 | 1016.0 |
| 20260906122737 | 24 | 1 | 6.4 | 8.0 | 0.00 | 0.00 | 0.00 | 83 | 1016.0 |
| 20260906122235 | 24 | 264 | 1.6 | 3.2 | 0.00 | 0.00 | 0.00 | 83 | 1016.0 |
| 20260906121735 | 24 | 329 | 3.2 | 3.2 | 0.00 | 0.00 | 0.00 | 83 | 1016.0 |
| 20260906121235 | 24 | 48 | 1.6 | 4.8 | 0.00 | 0.00 | 0.00 | 83 | 1016.0 |
| 20260906120737 | 24 | 360 | 0.0 | 1.6 | 0.00 | 0.00 | 0.00 | 83 | 1016.0 |
| 20260906120235 | 24 | 343 | 1.6 | 3.2 | 0.00 | 0.00 | 0.00 | 82 | 1016.0 |
| 20260906115735 | 24 | 317 | 3.2 | 3.2 | 0.00 | 0.00 | 0.00 | 83 | 1016.0 |
| 20260906115235 | 24 | 261 | 0.0 | 1.6 | 0.00 | 0.00 | 0.00 | 82 | 1016.0 |
| 20260906114735 | 24 | 277 | 0.0 | 3.2 | 0.00 | 0.00 | 0.00 | 82 | 1016.0 |
| 20260906114235 | 24 | 345 | 1.6 | 3.2 | 0.00 | 0.00 | 0.00 | 82 | 1016.0 |
| 20260906113735 | 24 | 302 | 0.0 | 4.8 | 0.00 | 0.00 | 0.00 | 82 | 1016.0 |
| 20260906113236 | 24 | 318 | 0.0 | 3.2 | 0.00 | 0.00 | 0.00 | 82 | 1016.0 |
| 20260906112736 | 24 | 258 | 0.0 | 1.6 | 0.00 | 0.00 | 0.00 | 81 | 1016.0 |
| 20260906112235 | 24 | 247 | 0.0 | 1.6 | 0.00 | 0.00 | 0.00 | 81 | 1016.0 |
| 20260906111735 | 24 | 286 | 1.6 | 3.2 | 0.00 | 0.00 | 0.00 | 82 | 1016.0 |
| 20260906111235 | 25 | 272 | 0.0 | 4.8 | 0.00 | 0.00 | 0.00 | 82 | 1016.0 |
| 20260906110735 | 25 | 272 | 1.6 | 3.2 | 0.00 | 0.00 | 0.00 | 82 | 1016.0 |
| 20260906110235 | 25 | 297 | 0.0 | 3.2 | 0.00 | 0.00 | 0.00 | 81 | 1016.0 |
| 20260906105735 | 25 | 278 | 1.6 | 3.2 | 0.00 | 0.00 | 0.00 | 81 | 1016.0 |
| 20260906105235 | 25 | 292 | 1.6 | 3.2 | 0.00 | 0.00 | 0.00 | 80 | 1015.0 |
| 20260906104736 | 25 | 287 | 1.6 | 3.2 | 0.00 | 0.00 | 0.00 | 80 | 1015.0 |
| 20260906104236 | 25 | 240 | 0.0 | 3.2 | 0.00 | 0.00 | 0.00 | 80 | 1015.0 |
| 20260906103735 | 25 | 272 | 1.6 | 3.2 | 0.00 | 0.00 | 0.00 | 79 | 1015.0 |
| 20260906103235 | 25 | 313 | 1.6 | 4.8 | 0.00 | 0.00 | 0.00 | 79 | 1015.0 |
| 20260906102735 | 25 | 338 | 1.6 | 4.8 | 0.00 | 0.00 | 0.00 | 79 | 1015.0 |
| 20260906102235 | 25 | 42 | 3.2 | 4.8 | 0.00 | 0.00 | 0.00 | 79 | 1015.0 |
| 20260906101735 | 25 | 15 | 3.2 | 3.2 | 0.00 | 0.00 | 0.00 | 78 | 1015.0 |
| 20260906101235 | 25 | 127 | 3.2 | 3.2 | 0.00 | 0.00 | 0.00 | 79 | 1015.0 |
| 20260906100735 | 25 | 336 | 0.0 | 3.2 | 0.00 | 0.00 | 0.00 | 78 | 1015.0 |
| 20260906100235 | 25 | 261 | 1.6 | 1.6 | 0.00 | 0.00 | 0.00 | 78 | 1015.0 |
| 20260906095735 | 25 | 322 | 0.0 | 3.2 | 0.00 | 0.00 | 0.00 | 78 | 1015.0 |
| 20260906095235 | 25 | 1 | 0.0 | 6.4 | 0.00 | 0.00 | 0.00 | 78 | 1015.0 |
| 20260906094735 | 26 | 330 | 1.6 | 3.2 | 0.00 | 0.00 | 0.00 | 78 | 1015.0 |
| 20260906094235 | 26 | 315 | 0.0 | 3.2 | 0.00 | 0.00 | 0.00 | 78 | 1015.0 |
| 20260906093735 | 26 | 49 | 3.2 | 6.4 | 0.00 | 0.00 | 0.00 | 78 | 1015.0 |
| 20260906093235 | 26 | 298 | 0.0 | 4.8 | 0.00 | 0.00 | 0.00 | 78 | 1015.0 |
| 20260906092735 | 26 | 97 | 1.6 | 4.8 | 0.00 | 0.00 | 0.00 | 78 | 1015.0 |
| 20260906092235 | 26 | 307 | 0.0 | 4.8 | 0.00 | 0.00 | 0.00 | 78 | 1015.0 |
| 20260906091735 | 26 | 286 | 0.0 | 6.4 | 0.00 | 0.00 | 0.00 | 78 | 1015.0 |
| 20260906091236 | 26 | 320 | 0.0 | 4.8 | 0.00 | 0.00 | 0.00 | 78 | 1015.0 |
| 20260906090735 | 26 | 320 | 0.0 | 4.8 | 0.00 | 0.00 | 0.00 | 78 | 1015.0 |
| 20260906090235 | 26 | 280 | 1.6 | 3.2 | 0.00 | 0.00 | 0.00 | 77 | 1015.0 |
| 20260906085736 | 26 | 55 | 4.8 | 4.8 | 0.00 | 0.00 | 0.00 | 76 | 1015.0 |
| 20260906085235 | 26 | 15 | 4.8 | 4.8 | 0.00 | 0.00 | 0.00 | 76 | 1015.0 |
| 20260906084736 | 27 | 23 | 3.2 | 6.4 | 0.00 | 0.00 | 0.00 | 76 | 1015.0 |
| 20260906084235 | 27 | 352 | 1.6 | 6.4 | 0.00 | 0.00 | 0.00 | 76 | 1014.0 |
| 20260906083736 | 27 | 51 | 3.2 | 4.8 | 0.00 | 0.00 | 0.00 | 77 | 1014.0 |
| 20260906083235 | 27 | 347 | 0.0 | 8.0 | 0.00 | 0.00 | 0.00 | 77 | 1014.0 |
| 20260906082735 | 27 | 37 | 4.8 | 6.4 | 0.00 | 0.00 | 0.00 | 77 | 1014.0 |
| 20260906082235 | 27 | 340 | 3.2 | 4.8 | 0.00 | 0.00 | 0.00 | 75 | 1015.0 |
| 20260906081735 | 27 | 78 | 0.0 | 3.2 | 0.00 | 0.00 | 0.00 | 74 | 1014.0 |
| 20260906081235 | 27 | 81 | 0.0 | 4.8 | 0.00 | 0.00 | 0.00 | 73 | 1015.0 |
| 20260906080735 | 27 | 139 | 1.6 | 4.8 | 0.00 | 0.00 | 0.00 | 73 | 1015.0 |
| 20260906080235 | 27 | 145 | 0.0 | 6.4 | 0.00 | 0.00 | 0.00 | 74 | 1014.0 |
| 20260906075736 | 27 | 317 | 1.6 | 4.8 | 0.00 | 0.00 | 0.00 | 75 | 1014.0 |
| 20260906075235 | 27 | 52 | 3.2 | 8.0 | 0.00 | 0.00 | 0.00 | 75 | 1014.0 |
| 20260906074735 | 27 | 18 | 4.8 | 6.4 | 0.00 | 0.00 | 0.00 | 76 | 1014.0 |
| 20260906074238 | 27 | 99 | 3.2 | 8.0 | 0.00 | 0.00 | 0.00 | 76 | 1014.0 |
| 20260906073735 | 27 | 63 | 1.6 | 6.4 | 0.00 | 0.00 | 0.00 | 76 | 1014.0 |
| 20260906073235 | 27 | 356 | 0.0 | 3.2 | 0.00 | 0.00 | 0.00 | 76 | 1014.0 |
| 20260906072736 | 28 | 67 | 0.0 | 4.8 | 0.00 | 0.00 | 0.00 | 76 | 1014.0 |
| 20260906072235 | 28 | 124 | 1.6 | 6.4 | 0.00 | 0.00 | 0.00 | 76 | 1014.0 |
| 20260906071735 | 28 | 102 | 8.0 | 8.0 | 0.00 | 0.00 | 0.00 | 76 | 1014.0 |
| 20260906071236 | 28 | 168 | 0.0 | 3.2 | 0.00 | 0.00 | 0.00 | 75 | 1014.0 |
| 20260906070735 | 28 | 203 | 0.0 | 4.8 | 0.00 | 0.00 | 0.00 | 75 | 1014.0 |
| 20260906070236 | 28 | 329 | 0.0 | 3.2 | 0.00 | 0.00 | 0.00 | 74 | 1014.0 |
| 20260906065735 | 28 | 190 | 0.0 | 3.2 | 0.00 | 0.00 | 0.00 | 74 | 1014.0 |
| 20260906065235 | 28 | 99 | 1.6 | 8.0 | 0.00 | 0.00 | 0.00 | 74 | 1014.0 |
| 20260906064735 | 28 | 106 | 6.4 | 8.0 | 0.00 | 0.00 | 0.00 | 73 | 1014.0 |
| 20260906064236 | 28 | 235 | 1.6 | 3.2 | 0.00 | 0.00 | 0.00 | 73 | 1014.0 |
| 20260906063735 | 28 | 327 | 0.0 | 4.8 | 0.00 | 0.00 | 0.00 | 73 | 1015.0 |
| 20260906063235 | 29 | 109 | 6.4 | 6.4 | 0.00 | 0.00 | 0.00 | 72 | 1015.0 |
| 20260906062735 | 29 | 231 | 1.6 | 6.4 | 0.00 | 0.00 | 0.00 | 71 | 1014.0 |
| 20260906062235 | 29 | 49 | 0.0 | 4.8 | 0.00 | 0.00 | 0.00 | 71 | 1015.0 |
| 20260906061735 | 29 | 148 | 0.0 | 4.8 | 0.00 | 0.00 | 0.00 | 70 | 1014.0 |
| 20260906061235 | 30 | 346 | 0.0 | 6.4 | 0.00 | 0.00 | 0.00 | 70 | 1014.0 |
| 20260906060735 | 30 | 119 | 3.2 | 4.8 | 0.00 | 0.00 | 0.00 | 69 | 1015.0 |
| 20260906060235 | 30 | 140 | 1.6 | 6.4 | 0.00 | 0.00 | 0.00 | 69 | 1015.0 |
| 20260906055735 | 30 | 33 | 6.4 | 6.4 | 0.00 | 0.00 | 0.00 | 69 | 1015.0 |
| 20260906055236 | 30 | 101 | 0.0 | 6.4 | 0.00 | 0.00 | 0.00 | 69 | 1014.0 |
| 20260906054735 | 30 | 349 | 4.8 | 6.4 | 0.00 | 0.00 | 0.00 | 69 | 1014.0 |
| 20260906054235 | 30 | 45 | 3.2 | 3.2 | 0.00 | 0.00 | 0.00 | 68 | 1014.0 |
| 20260906053737 | 30 | 97 | 3.2 | 4.8 | 0.00 | 0.00 | 0.00 | 68 | 1014.0 |
| 20260906053235 | 30 | 325 | 1.6 | 4.8 | 0.00 | 0.00 | 0.00 | 68 | 1014.0 |
| 20260906052735 | 30 | 232 | 0.0 | 3.2 | 0.00 | 0.00 | 0.00 | 68 | 1015.0 |
| 20260906052237 | 30 | 322 | 0.0 | 3.2 | 0.00 | 0.00 | 0.00 | 67 | 1014.0 |
| 20260906051739 | 30 | 308 | 1.6 | 3.2 | 0.00 | 0.00 | 0.00 | 67 | 1015.0 |
| 20260906051236 | 30 | 89 | 0.0 | 3.2 | 0.00 | 0.00 | 0.00 | 67 | 1015.0 |
| 20260906050735 | 30 | 304 | 0.0 | 4.8 | 0.00 | 0.00 | 0.00 | 66 | 1015.0 |
| 20260906050236 | 30 | 230 | 0.0 | 3.2 | 0.00 | 0.00 | 0.00 | 66 | 1014.0 |
| 20260906045736 | 30 | 330 | 0.0 | 3.2 | 0.00 | 0.00 | 0.00 | 66 | 1014.0 |
| 20260906045235 | 30 | 107 | 1.6 | 1.6 | 0.00 | 0.00 | 0.00 | 65 | 1014.0 |
| 20260906044735 | 30 | 254 | 0.0 | 3.2 | 0.00 | 0.00 | 0.00 | 65 | 1014.0 |
| 20260906044235 | 31 | 164 | 1.6 | 1.6 | 0.00 | 0.00 | 0.00 | 65 | 1014.0 |
| 20260906043735 | 31 | 263 | 1.6 | 3.2 | 0.00 | 0.00 | 0.00 | 64 | 1014.0 |
| 20260906043236 | 31 | 315 | 0.0 | 3.2 | 0.00 | 0.00 | 0.00 | 64 | 1014.0 |
| 20260906042735 | 31 | 160 | 1.6 | 4.8 | 0.00 | 0.00 | 0.00 | 64 | 1014.0 |
| 20260906042235 | 31 | 333 | 0.0 | 3.2 | 0.00 | 0.00 | 0.00 | 63 | 1014.0 |
| 20260906041735 | 31 | 126 | 0.0 | 3.2 | 0.00 | 0.00 | 0.00 | 63 | 1014.0 |
| 20260906041235 | 31 | 230 | 3.2 | 4.8 | 0.00 | 0.00 | 0.00 | 62 | 1014.0 |
| 20260906040735 | 31 | 304 | 0.0 | 4.8 | 0.00 | 0.00 | 0.00 | 62 | 1014.0 |
| 20260906040235 | 31 | 171 | 0.0 | 3.2 | 0.00 | 0.00 | 0.00 | 61 | 1014.0 |
| 20260906035735 | 31 | 315 | 0.0 | 4.8 | 0.00 | 0.00 | 0.00 | 61 | 1014.0 |
| 20260906035236 | 31 | 193 | 0.0 | 3.2 | 0.00 | 0.00 | 0.00 | 60 | 1014.0 |
| 20260906034735 | 31 | 8 | 3.2 | 4.8 | 0.00 | 0.00 | 0.00 | 60 | 1014.0 |
| 20260906034235 | 31 | 332 | 1.6 | 3.2 | 0.00 | 0.00 | 0.00 | 59 | 1014.0 |
| 20260906033735 | 31 | 310 | 0.0 | 4.8 | 0.00 | 0.00 | 0.00 | 59 | 1014.0 |
| 20260906033236 | 31 | 319 | 3.2 | 4.8 | 0.00 | 0.00 | 0.00 | 58 | 1014.0 |
| 20260906032735 | 32 | 80 | 0.0 | 3.2 | 0.00 | 0.00 | 0.00 | 57 | 1014.0 |
| 20260906032235 | 32 | 346 | 3.2 | 6.4 | 0.00 | 0.00 | 0.00 | 57 | 1014.0 |
| 20260906031735 | 32 | 8 | 0.0 | 9.7 | 0.00 | 0.00 | 0.00 | 56 | 1014.0 |
| 20260906031235 | 32 | 33 | 6.4 | 6.4 | 0.00 | 0.00 | 0.00 | 56 | 1014.0 |
| 20260906030735 | 32 | 344 | 1.6 | 4.8 | 0.00 | 0.00 | 0.00 | 55 | 1014.0 |
| 20260906030237 | 32 | 346 | 1.6 | 3.2 | 0.00 | 0.00 | 0.00 | 54 | 1014.0 |
| 20260906025735 | 31 | 298 | 3.2 | 6.4 | 0.00 | 0.00 | 0.00 | 54 | 1014.0 |
| 20260906025235 | 31 | 306 | 1.6 | 3.2 | 0.00 | 0.00 | 0.00 | 54 | 1014.0 |
| 20260906024735 | 31 | 314 | 0.0 | 3.2 | 0.00 | 0.00 | 0.00 | 55 | 1014.0 |
| 20260906024235 | 31 | 259 | 3.2 | 3.2 | 0.00 | 0.00 | 0.00 | 54 | 1014.0 |
| 20260906023735 | 31 | 265 | 3.2 | 4.8 | 0.00 | 0.00 | 0.00 | 54 | 1014.0 |
| 20260906023235 | 31 | 271 | 0.0 | 3.2 | 0.00 | 0.00 | 0.00 | 53 | 1014.0 |
| 20260906022735 | 31 | 255 | 0.0 | 3.2 | 0.00 | 0.00 | 0.00 | 53 | 1013.0 |
| 20260906022235 | 31 | 307 | 0.0 | 3.2 | 0.00 | 0.00 | 0.00 | 53 | 1013.0 |
| 20260906021735 | 32 | 266 | 1.6 | 3.2 | 0.00 | 0.00 | 0.00 | 53 | 1013.0 |
| 20260906021235 | 32 | 251 | 3.2 | 3.2 | 0.00 | 0.00 | 0.00 | 53 | 1013.0 |
| 20260906020735 | 32 | 266 | 1.6 | 3.2 | 0.00 | 0.00 | 0.00 | 52 | 1013.0 |
| 20260906020235 | 32 | 266 | 1.6 | 3.2 | 0.00 | 0.00 | 0.00 | 52 | 1013.0 |
| 20260906015736 | 32 | 296 | 3.2 | 3.2 | 0.00 | 0.00 | 0.00 | 52 | 1013.0 |
| 20260906015236 | 32 | 255 | 1.6 | 3.2 | 0.00 | 0.00 | 0.00 | 53 | 1013.0 |
| 20260906014735 | 32 | 269 | 1.6 | 3.2 | 0.00 | 0.00 | 0.00 | 53 | 1013.0 |
| 20260906014235 | 32 | 262 | 3.2 | 3.2 | 0.00 | 0.00 | 0.00 | 53 | 1013.0 |
| 20260906013735 | 32 | 258 | 3.2 | 3.2 | 0.00 | 0.00 | 0.00 | 51 | 1013.0 |
| 20260906013236 | 32 | 271 | 1.6 | 3.2 | 0.00 | 0.00 | 0.00 | 51 | 1013.0 |
| 20260906012735 | 33 | 252 | 1.6 | 3.2 | 0.00 | 0.00 | 0.00 | 50 | 1013.0 |
| 20260906012235 | 33 | 262 | 0.0 | 3.2 | 0.00 | 0.00 | 0.00 | 50 | 1013.0 |
| 20260906011736 | 33 | 333 | 1.6 | 3.2 | 0.00 | 0.00 | 0.00 | 50 | 1013.0 |
| 20260906011236 | 33 | 258 | 1.6 | 3.2 | 0.00 | 0.00 | 0.00 | 49 | 1013.0 |
| 20260906010735 | 33 | 262 | 1.6 | 3.2 | 0.00 | 0.00 | 0.00 | 49 | 1013.0 |
| 20260906010235 | 33 | 266 | 0.0 | 3.2 | 0.00 | 0.00 | 0.00 | 48 | 1013.0 |
| 20260906005735 | 33 | 301 | 0.0 | 4.8 | 0.00 | 0.00 | 0.00 | 48 | 1012.0 |
| 20260906005235 | 33 | 313 | 1.6 | 3.2 | 0.00 | 0.00 | 0.00 | 47 | 1012.0 |
| 20260906004736 | 33 | 324 | 3.2 | 4.8 | 0.00 | 0.00 | 0.00 | 47 | 1012.0 |
| 20260906004235 | 34 | 314 | 1.6 | 4.8 | 0.00 | 0.00 | 0.00 | 47 | 1012.0 |
| 20260906003735 | 34 | 268 | 3.2 | 3.2 | 0.00 | 0.00 | 0.00 | 46 | 1012.0 |
| 20260906003235 | 34 | 308 | 1.6 | 3.2 | 0.00 | 0.00 | 0.00 | 46 | 1012.0 |
| 20260906002735 | 35 | 259 | 1.6 | 3.2 | 0.00 | 0.00 | 0.00 | 46 | 1012.0 |
| 20260906002235 | 35 | 259 | 3.2 | 3.2 | 0.00 | 0.00 | 0.00 | 45 | 1012.0 |
| 20260906001735 | 35 | 195 | 0.0 | 3.2 | 0.00 | 0.00 | 0.00 | 45 | 1012.0 |
| 20260906001235 | 35 | 232 | 3.2 | 3.2 | 0.00 | 0.00 | 0.00 | 44 | 1012.0 |
| 20260906000735 | 35 | 355 | 4.8 | 4.8 | 0.00 | 0.00 | 0.00 | 44 | 1012.0 |
| 20260906000235 | 35 | 319 | 4.8 | 4.8 | 0.00 | 0.00 | 0.00 | 43 | 1012.0 |
| 20260905235735 | 35 | 260 | 1.6 | 3.2 | 0.00 | 0.00 | 0.00 | 44 | 1012.0 |
| 20260905235235 | 35 | 308 | 3.2 | 4.8 | 0.00 | 0.00 | 0.00 | 43 | 1012.0 |
| 20260905234735 | 35 | 281 | 1.6 | 4.8 | 0.00 | 0.00 | 0.00 | 44 | 1012.0 |
| 20260905234235 | 35 | 277 | 3.2 | 3.2 | 0.00 | 0.00 | 0.00 | 44 | 1012.0 |
| 20260905233735 | 36 | 283 | 1.6 | 3.2 | 0.00 | 0.00 | 0.00 | 43 | 1012.0 |
| 20260905233235 | 36 | 257 | 1.6 | 4.8 | 0.00 | 0.00 | 0.00 | 43 | 1012.0 |
| 20260905232735 | 36 | 280 | 4.8 | 6.4 | 0.00 | 0.00 | 0.00 | 42 | 1012.0 |
| 20260905232235 | 36 | 296 | 4.8 | 6.4 | 0.00 | 0.00 | 0.00 | 42 | 1013.0 |
| 20260905231735 | 36 | 285 | 4.8 | 6.4 | 0.00 | 0.00 | 0.00 | 41 | 1012.0 |
| 20260905231235 | 36 | 285 | 4.8 | 8.0 | 0.00 | 0.00 | 0.00 | 42 | 1013.0 |
| 20260905230735 | 36 | 303 | 6.4 | 8.0 | 0.00 | 0.00 | 0.00 | 41 | 1012.0 |
| 20260905230236 | 36 | 283 | 4.8 | 9.7 | 0.00 | 0.00 | 0.00 | 40 | 1013.0 |
| 20260905225735 | 37 | 304 | 6.4 | 8.0 | 0.00 | 0.00 | 0.00 | 39 | 1012.0 |
| 20260905225235 | 37 | 286 | 4.8 | 6.4 | 0.00 | 0.00 | 0.00 | 39 | 1012.0 |
| 20260905224735 | 37 | 304 | 0.0 | 4.8 | 0.00 | 0.00 | 0.00 | 40 | 1012.0 |
| 20260905224235 | 37 | 266 | 4.8 | 8.0 | 0.00 | 0.00 | 0.00 | 40 | 1012.0 |
| 20260905223735 | 36 | 291 | 4.8 | 8.0 | 0.00 | 0.00 | 0.00 | 40 | 1012.0 |
| 20260905223236 | 36 | 276 | 4.8 | 6.4 | 0.00 | 0.00 | 0.00 | 41 | 1012.0 |
| 20260905222735 | 36 | 280 | 6.4 | 6.4 | 0.00 | 0.00 | 0.00 | 42 | 1012.0 |
| 20260905222236 | 36 | 290 | 3.2 | 6.4 | 0.00 | 0.00 | 0.00 | 42 | 1012.0 |
| 20260905221736 | 36 | 295 | 3.2 | 4.8 | 0.00 | 0.00 | 0.00 | 41 | 1012.0 |
| 20260905221235 | 36 | 281 | 6.4 | 6.4 | 0.00 | 0.00 | 0.00 | 41 | 1012.0 |
| 20260905220735 | 36 | 312 | 4.8 | 6.4 | 0.00 | 0.00 | 0.00 | 40 | 1012.0 |
| 20260905220236 | 36 | 278 | 3.2 | 6.4 | 0.00 | 0.00 | 0.00 | 41 | 1013.0 |
| 20260905215735 | 36 | 302 | 8.0 | 8.0 | 0.00 | 0.00 | 0.00 | 41 | 1012.0 |
| 20260905215235 | 37 | 324 | 4.8 | 8.0 | 0.00 | 0.00 | 0.00 | 40 | 1013.0 |
| 20260905214735 | 37 | 264 | 8.0 | 11.3 | 0.00 | 0.00 | 0.00 | 39 | 1012.0 |
| 20260905214235 | 37 | 260 | 6.4 | 9.7 | 0.00 | 0.00 | 0.00 | 39 | 1012.0 |
| 20260905213736 | 36 | 267 | 3.2 | 6.4 | 0.00 | 0.00 | 0.00 | 38 | 1012.0 |
| 20260905213235 | 36 | 264 | 4.8 | 6.4 | 0.00 | 0.00 | 0.00 | 38 | 1012.0 |
| 20260905212735 | 36 | 261 | 3.2 | 6.4 | 0.00 | 0.00 | 0.00 | 39 | 1012.0 |
| 20260905212235 | 36 | 275 | 3.2 | 6.4 | 0.00 | 0.00 | 0.00 | 38 | 1012.0 |
| 20260905211735 | 36 | 258 | 6.4 | 8.0 | 0.00 | 0.00 | 0.00 | 38 | 1012.0 |
| 20260905211236 | 36 | 273 | 3.2 | 4.8 | 0.00 | 0.00 | 0.00 | 39 | 1012.0 |
| 20260905210735 | 35 | 243 | 4.8 | 8.0 | 0.00 | 0.00 | 0.00 | 39 | 1012.0 |
| 20260905210235 | 35 | 267 | 4.8 | 8.0 | 0.00 | 0.00 | 0.00 | 39 | 1013.0 |
| 20260905205736 | 35 | 259 | 4.8 | 8.0 | 0.00 | 0.00 | 0.00 | 38 | 1013.0 |
| 20260905205235 | 35 | 260 | 4.8 | 11.3 | 0.00 | 0.00 | 0.00 | 38 | 1013.0 |
| 20260905204735 | 35 | 231 | 3.2 | 8.0 | 0.00 | 0.00 | 0.00 | 39 | 1013.0 |
| 20260905204236 | 35 | 237 | 4.8 | 8.0 | 0.00 | 0.00 | 0.00 | 39 | 1013.0 |
| 20260905203736 | 36 | 284 | 11.3 | 16.1 | 0.00 | 0.00 | 0.00 | 37 | 1013.0 |
| 20260905203235 | 36 | 250 | 8.0 | 8.0 | 0.00 | 0.00 | 0.00 | 39 | 1013.0 |
| 20260905202740 | 36 | 285 | 3.2 | 4.8 | 0.00 | 0.00 | 0.00 | 39 | 1013.0 |
| 20260905202236 | 37 | 292 | 4.8 | 6.4 | 0.00 | 0.00 | 0.00 | 40 | 1013.0 |
| 20260905201735 | 37 | 302 | 3.2 | 3.2 | 0.00 | 0.00 | 0.00 | 38 | 1013.0 |
| 20260905201235 | 37 | 258 | 3.2 | 4.8 | 0.00 | 0.00 | 0.00 | 37 | 1013.0 |
| 20260905200735 | 37 | 249 | 6.4 | 6.4 | 0.00 | 0.00 | 0.00 | 37 | 1013.0 |
| 20260905200235 | 37 | 285 | 1.6 | 4.8 | 0.00 | 0.00 | 0.00 | 36 | 1013.0 |
| 20260905195736 | 37 | 272 | 1.6 | 6.4 | 0.00 | 0.00 | 0.00 | 35 | 1013.0 |
| 20260905195236 | 37 | 236 | 0.0 | 4.8 | 0.00 | 0.00 | 0.00 | 36 | 1013.0 |
| 20260905194735 | 38 | 298 | 8.0 | 9.7 | 0.00 | 0.00 | 0.00 | 35 | 1013.0 |
| 20260905194235 | 37 | 279 | 3.2 | 8.0 | 0.00 | 0.00 | 0.00 | 36 | 1013.0 |
| 20260905193735 | 38 | 280 | 4.8 | 9.7 | 0.00 | 0.00 | 0.00 | 35 | 1013.0 |
| 20260905193235 | 38 | 315 | 6.4 | 8.0 | 0.00 | 0.00 | 0.00 | 36 | 1013.0 |
| 20260905192735 | 37 | 296 | 4.8 | 8.0 | 0.00 | 0.00 | 0.00 | 36 | 1014.0 |
| 20260905192235 | 37 | 295 | 3.2 | 4.8 | 0.00 | 0.00 | 0.00 | 37 | 1013.0 |
| 20260905191736 | 37 | 251 | 6.4 | 12.9 | 0.00 | 0.00 | 0.00 | 36 | 1013.0 |
| 20260905191236 | 37 | 260 | 3.2 | 8.0 | 0.00 | 0.00 | 0.00 | 36 | 1014.0 |
| 20260905190736 | 37 | 269 | 6.4 | 8.0 | 0.00 | 0.00 | 0.00 | 36 | 1014.0 |
| 20260905190236 | 37 | 256 | 6.4 | 9.7 | 0.00 | 0.00 | 0.00 | 36 | 1013.0 |
| 20260905185736 | 37 | 285 | 4.8 | 9.7 | 0.00 | 0.00 | 0.00 | 36 | 1013.0 |
| 20260905185235 | 37 | 249 | 8.0 | 16.1 | 0.00 | 0.00 | 0.00 | 37 | 1014.0 |
| 20260905184736 | 37 | 243 | 12.9 | 14.5 | 0.00 | 0.00 | 0.00 | 37 | 1014.0 |
| 20260905184235 | 37 | 275 | 6.4 | 8.0 | 0.00 | 0.00 | 0.00 | 38 | 1014.0 |
| 20260905183736 | 37 | 258 | 6.4 | 11.3 | 0.00 | 0.00 | 0.00 | 37 | 1014.0 |
| 20260905183235 | 37 | 302 | 11.3 | 14.5 | 0.00 | 0.00 | 0.00 | 39 | 1014.0 |
| 20260905182735 | 37 | 310 | 3.2 | 8.0 | 0.00 | 0.00 | 0.00 | 41 | 1014.0 |
| 20260905182235 | 36 | 241 | 4.8 | 6.4 | 0.00 | 0.00 | 0.00 | 39 | 1014.0 |
| 20260905181735 | 36 | 274 | 3.2 | 9.7 | 0.00 | 0.00 | 0.00 | 40 | 1014.0 |
| 20260905181235 | 36 | 335 | 3.2 | 8.0 | 0.00 | 0.00 | 0.00 | 40 | 1014.0 |
| 20260905180735 | 36 | 275 | 1.6 | 6.4 | 0.00 | 0.00 | 0.00 | 43 | 1014.0 |
| 20260905180235 | 36 | 281 | 4.8 | 11.3 | 0.00 | 0.00 | 0.00 | 42 | 1014.0 |
| 20260905175735 | 36 | 271 | 4.8 | 8.0 | 0.00 | 0.00 | 0.00 | 43 | 1014.0 |
| 20260905175235 | 36 | 229 | 11.3 | 12.9 | 0.00 | 0.00 | 0.00 | 43 | 1014.0 |
| 20260905174736 | 36 | 306 | 8.0 | 8.0 | 0.00 | 0.00 | 0.00 | 43 | 1014.0 |
| 20260905174235 | 35 | 310 | 4.8 | 8.0 | 0.00 | 0.00 | 0.00 | 43 | 1014.0 |
| 20260905173735 | 36 | 252 | 4.8 | 9.7 | 0.00 | 0.00 | 0.00 | 42 | 1014.0 |
| 20260905173235 | 36 | 247 | 8.0 | 9.7 | 0.00 | 0.00 | 0.00 | 43 | 1014.0 |
| 20260905172736 | 36 | 277 | 4.8 | 9.7 | 0.00 | 0.00 | 0.00 | 43 | 1014.0 |
| 20260905172235 | 35 | 278 | 4.8 | 8.0 | 0.00 | 0.00 | 0.00 | 44 | 1014.0 |
| 20260905171736 | 35 | 259 | 6.4 | 8.0 | 0.00 | 0.00 | 0.00 | 44 | 1015.0 |
| 20260905171239 | 35 | 245 | 6.4 | 11.3 | 0.00 | 0.00 | 0.00 | 43 | 1014.0 |
| 20260905170737 | 35 | 305 | 3.2 | 9.7 | 0.00 | 0.00 | 0.00 | 44 | 1014.0 |
| 20260905170236 | 35 | 287 | 4.8 | 8.0 | 0.00 | 0.00 | 0.00 | 45 | 1015.0 |
| 20260905165736 | 35 | 245 | 4.8 | 8.0 | 0.00 | 0.00 | 0.00 | 45 | 1015.0 |
| 20260905165236 | 35 | 228 | 6.4 | 8.0 | 0.00 | 0.00 | 0.00 | 46 | 1015.0 |
| 20260905164735 | 35 | 297 | 6.4 | 6.4 | 0.00 | 0.00 | 0.00 | 47 | 1015.0 |
| 20260905164236 | 35 | 263 | 9.7 | 9.7 | 0.00 | 0.00 | 0.00 | 46 | 1015.0 |
| 20260905163735 | 35 | 292 | 6.4 | 8.0 | 0.00 | 0.00 | 0.00 | 46 | 1015.0 |
| 20260905163237 | 34 | 302 | 3.2 | 6.4 | 0.00 | 0.00 | 0.00 | 48 | 1015.0 |
| 20260905162735 | 34 | 289 | 8.0 | 8.0 | 0.00 | 0.00 | 0.00 | 47 | 1015.0 |
| 20260905162235 | 34 | 273 | 6.4 | 9.7 | 0.00 | 0.00 | 0.00 | 49 | 1015.0 |
| 20260905161735 | 33 | 268 | 4.8 | 11.3 | 0.00 | 0.00 | 0.00 | 48 | 1015.0 |
| 20260905161235 | 33 | 280 | 4.8 | 6.4 | 0.00 | 0.00 | 0.00 | 49 | 1015.0 |
| 20260905160736 | 33 | 254 | 3.2 | 8.0 | 0.00 | 0.00 | 0.00 | 50 | 1015.0 |
| 20260905160236 | 33 | 289 | 4.8 | 9.7 | 0.00 | 0.00 | 0.00 | 50 | 1015.0 |
| 20260905155735 | 33 | 279 | 4.8 | 4.8 | 0.00 | 0.00 | 0.00 | 51 | 1015.0 |
| 20260905155235 | 33 | 293 | 4.8 | 6.4 | 0.00 | 0.00 | 0.00 | 51 | 1015.0 |
| 20260905154736 | 33 | 266 | 3.2 | 8.0 | 0.00 | 0.00 | 0.00 | 52 | 1015.0 |
| 20260905154235 | 32 | 277 | 3.2 | 4.8 | 0.00 | 0.00 | 0.00 | 54 | 1015.0 |
| 20260905153735 | 32 | 288 | 3.2 | 6.4 | 0.00 | 0.00 | 0.00 | 56 | 1015.0 |
| 20260905153235 | 32 | 269 | 6.4 | 8.0 | 0.00 | 0.00 | 0.00 | 56 | 1015.0 |
| 20260905152735 | 32 | 241 | 4.8 | 8.0 | 0.00 | 0.00 | 0.00 | 58 | 1015.0 |
| 20260905152235 | 31 | 255 | 4.8 | 6.4 | 0.00 | 0.00 | 0.00 | 58 | 1015.0 |
| 20260905151735 | 31 | 251 | 4.8 | 9.7 | 0.00 | 0.00 | 0.00 | 59 | 1015.0 |
| 20260905151235 | 30 | 241 | 3.2 | 8.0 | 0.00 | 0.00 | 0.00 | 60 | 1015.0 |
| 20260905150736 | 31 | 250 | 4.8 | 6.4 | 0.00 | 0.00 | 0.00 | 61 | 1015.0 |
| 20260905150235 | 30 | 239 | 3.2 | 4.8 | 0.00 | 0.00 | 0.00 | 62 | 1015.0 |